EW2270 Weather Reports


time (UTC)temp
F
wind
direction
speed
knots
gust
knots
rain 1hr
in
rain 24hr
in
rain mn
in
humidity
%
barometer
mb
20260903093015 54 146 0.0 0.9 0.03 0.35 0.04 87 1009.3
20260903091510 54 108 0.0 0.0 0.03 0.34 0.03 88 1009.0
20260903090024 54 108 0.0 0.0 0.01 0.32 0.01 88 1008.9
20260903084505 54 108 0.0 0.0 0.01 0.32 0.01 87 1008.6
20260903083005 55 108 0.0 0.0 0.01 0.32 0.01 86 1008.5
20260903081503 55 108 0.0 2.6 0.00 0.31 0.00 84 1008.3
20260903080112 55 121 1.7 2.6 0.00 0.31 0.00 86 1008.1
20260903074620 55 103 0.0 3.5 0.00 0.31 0.00 84 1008.0
20260903073108 55 309 3.5 5.2 0.01 0.31 0.00 84 1007.9
20260903071607 56 146 0.0 3.5 0.01 0.31 0.00 80 1007.7
20260903070051 55 133 1.7 7.8 0.08 0.31 0.00 81 1007.9
20260903064550 55 131 4.3 17.4 0.13 0.31 0.31 82 1007.8
20260903063049 54 131 2.6 7.8 0.15 0.30 0.30 85 1007.8
20260903061554 54 131 1.7 5.2 0.16 0.28 0.28 85 1008.2
20260903060047 55 197 1.7 5.2 0.11 0.22 0.22 82 1008.5
20260903054550 56 194 4.3 12.2 0.07 0.17 0.17 83 1008.4
20260903053049 57 243 12.2 17.4 0.07 0.15 0.15 84 1008.4
20260903051544 57 144 3.5 7.8 0.07 0.13 0.13 82 1007.6
20260903050043 57 139 2.6 7.0 0.07 0.11 0.11 82 1007.6
20260903044542 57 131 1.7 5.2 0.07 0.10 0.10 82 1007.8
20260903043041 57 113 0.9 4.3 0.06 0.08 0.08 84 1007.9
20260903041641 56 127 0.0 2.6 0.06 0.06 0.06 84 1007.9
20260903040039 57 140 0.9 5.2 0.04 0.04 0.04 81 1007.9
20260903034546 58 141 2.6 4.3 0.03 0.03 0.03 80 1007.9
20260903033041 59 170 3.5 6.1 0.01 0.01 0.01 76 1007.9
20260903031539 59 158 2.6 4.3 0.00 0.00 0.00 74 1007.7
20260903030034 60 208 2.6 6.1 0.00 0.00 0.00 72 1007.6
20260903024533 61 210 3.5 7.8 0.00 0.00 0.00 66 1007.3
20260903023036 62 188 6.1 11.3 0.00 0.00 0.00 61 1007.2
20260903021531 63 196 6.1 12.2 0.00 0.00 0.00 58 1007.2
20260903020031 64 202 7.8 13.9 0.00 0.00 0.00 56 1007.2
20260903014544 65 193 11.3 15.6 0.00 0.00 0.00 52 1007.1
20260903013034 64 198 10.4 15.6 0.00 0.00 0.00 55 1007.1
20260903011528 64 195 13.0 19.1 0.00 0.00 0.00 55 1007.1
20260903010028 66 202 12.2 18.2 0.00 0.00 0.00 52 1006.9
20260903004540 65 194 11.3 17.4 0.00 0.00 0.00 52 1006.9
20260903003031 66 233 8.7 16.5 0.00 0.00 0.00 53 1006.8
20260903001526 66 196 9.6 17.4 0.00 0.00 0.00 53 1006.5
20260903000024 67 243 8.7 15.6 0.00 0.00 0.00 55 1006.4
20260902234523 69 250 9.6 23.5 0.00 0.00 0.00 44 1006.2
20260902233024 70 248 11.3 18.2 0.00 0.00 0.00 42 1006.2
20260902231521 71 259 13.0 22.6 0.00 0.00 0.00 39 1006.0
20260902230021 71 241 13.0 26.9 0.00 0.00 0.00 39 1005.5
20260902224620 72 263 19.1 26.1 0.00 0.00 0.00 39 1005.2
20260902223020 73 251 19.1 26.9 0.00 0.00 0.00 35 1005.1
20260902221523 75 230 13.9 21.7 0.00 0.00 0.00 30 1005.1
20260902220018 76 221 12.2 19.1 0.00 0.00 0.00 28 1004.4
20260902214525 76 231 7.8 17.4 0.00 0.00 0.00 28 1004.2
20260902213024 77 110 5.2 11.3 0.00 0.00 0.00 29 1003.9
20260902211509 75 100 3.5 7.8 0.00 0.00 0.00 35 1004.1
20260902210015 75 146 3.5 10.4 0.00 0.00 0.00 35 1004.3
20260902204504 74 6 3.5 7.8 0.00 0.00 0.00 37 1004.3
20260902203003 74 27 2.6 9.6 0.00 0.00 0.00 38 1004.5
20260902201603 73 49 7.8 11.3 0.00 0.00 0.00 39 1004.7
20260902200059 72 44 3.5 7.8 0.00 0.00 0.00 40 1005.0
20260902194555 71 23 2.6 5.2 0.00 0.00 0.00 41 1005.4
20260902193056 71 356 2.6 6.1 0.00 0.00 0.00 41 1005.5
20260902191555 71 340 2.6 4.3 0.00 0.00 0.00 41 1005.7
20260902190051 71 318 0.0 7.0 0.00 0.00 0.00 42 1005.9
20260902184557 72 43 0.0 3.5 0.00 0.00 0.00 42 1006.1
20260902183046 71 111 0.0 5.2 0.00 0.00 0.00 42 1006.3
20260902181547 70 284 2.6 6.1 0.00 0.00 0.00 43 1006.5
20260902180040 69 291 0.9 5.2 0.00 0.00 0.00 44 1006.6
20260902174538 68 279 0.0 4.3 0.00 0.00 0.00 45 1006.9
20260902173036 68 187 1.7 4.3 0.00 0.00 0.00 46 1007.0
20260902171534 68 357 2.6 4.3 0.00 0.00 0.00 47 1007.2
20260902170031 66 30 2.6 5.2 0.00 0.00 0.00 49 1007.3
20260902164530 66 248 4.3 6.1 0.00 0.00 0.00 49 1007.3
20260902163028 65 222 1.7 5.2 0.00 0.00 0.00 51 1007.4
20260902161526 65 302 0.9 6.1 0.00 0.00 0.00 51 1007.4
20260902160024 65 229 2.6 5.2 0.00 0.00 0.00 51 1007.5
20260902154526 64 269 5.2 8.7 0.00 0.00 0.00 52 1007.8
20260902153023 63 210 2.6 6.1 0.00 0.00 0.00 54 1008.0
20260902151518 60 156 0.9 1.7 0.00 0.00 0.00 62 1008.2
20260902150018 56 157 0.0 0.0 0.00 0.00 0.00 66 1008.3
20260902144520 55 157 0.0 1.7 0.00 0.00 0.00 67 1008.5
20260902143017 54 186 3.5 5.2 0.00 0.00 0.00 69 1008.5
20260902141516 55 148 1.7 3.5 0.00 0.00 0.00 68 1008.4
20260902140013 54 141 1.7 2.6 0.00 0.00 0.00 68 1008.5
20260902134513 55 193 0.0 3.5 0.00 0.00 0.00 68 1008.5
20260902133012 56 186 1.7 2.6 0.00 0.00 0.00 66 1008.5
20260902131511 56 169 2.6 4.3 0.00 0.00 0.00 67 1008.5
20260902130010 55 165 2.6 3.5 0.00 0.00 0.00 69 1008.2
20260902124509 55 233 0.9 2.6 0.00 0.00 0.00 68 1008.2
20260902123009 55 238 0.9 4.3 0.00 0.00 0.00 68 1008.2
20260902121506 55 203 3.5 5.2 0.00 0.00 0.00 69 1008.1
20260902120007 56 140 1.7 2.6 0.00 0.00 0.00 67 1007.7
20260902114501 57 158 0.0 1.7 0.00 0.00 0.00 66 1007.6
20260902113004 58 158 0.0 2.6 0.00 0.00 0.00 65 1007.7
20260902111606 58 158 0.9 2.6 0.00 0.00 0.00 66 1008.1
20260902110059 58 158 0.0 1.7 0.00 0.00 0.00 66 1008.4
20260902104558 59 153 1.7 4.3 0.00 0.00 0.00 66 1008.7
20260902103056 58 159 3.5 6.1 0.00 0.00 0.00 66 1008.5
20260902101555 57 146 2.6 4.3 0.00 0.00 0.00 67 1008.2
20260902100104 56 149 4.3 5.2 0.00 0.00 0.00 67 1008.1
20260902094551 57 153 0.9 3.5 0.00 0.00 0.00 66 1007.9